Naples Weather Center

Moon Phase Calendar



Online Cameras

 


      

Current Conditions in Naples
2/27/2024 8:07:54 AM

60°F
Feels Like 58
Clear
Humidity
60%
Pressure
30.15"
Wind
6.9 mph (E)
Dew Point
46°F
UV Index
1/10 (Low)
Visibility
6 mi

Hourly Forecast

Date & Time Tue, Feb 27
8:00 AM
Tue, Feb 27
9:00 AM
Tue, Feb 27
10:00 AM
Tue, Feb 27
11:00 AM
Tue, Feb 27
12:00 PM
Tue, Feb 27
1:00 PM
Tue, Feb 27
2:00 PM
Tue, Feb 27
3:00 PM
Tue, Feb 27
4:00 PM
Tue, Feb 27
5:00 PM
Tue, Feb 27
6:00 PM
Tue, Feb 27
7:00 PM
Tue, Feb 27
8:00 PM
Tue, Feb 27
9:00 PM
Tue, Feb 27
10:00 PM
Tue, Feb 27
11:00 PM
Wed, Feb 28
12:00 AM
Wed, Feb 28
1:00 AM
Wed, Feb 28
2:00 AM
Wed, Feb 28
3:00 AM
Wed, Feb 28
4:00 AM
Wed, Feb 28
5:00 AM
Wed, Feb 28
6:00 AM
Wed, Feb 28
7:00 AM
Wed, Feb 28
8:00 AM
Wed, Feb 28
9:00 AM
Wed, Feb 28
10:00 AM
Wed, Feb 28
11:00 AM
Wed, Feb 28
12:00 PM
Wed, Feb 28
1:00 PM
Wed, Feb 28
2:00 PM
Wed, Feb 28
3:00 PM
Wed, Feb 28
4:00 PM
Wed, Feb 28
5:00 PM
Wed, Feb 28
6:00 PM
Wed, Feb 28
7:00 PM
Wed, Feb 28
8:00 PM
Wed, Feb 28
9:00 PM
Wed, Feb 28
10:00 PM
Wed, Feb 28
11:00 PM
Thu, Feb 29
12:00 AM
Thu, Feb 29
1:00 AM
Thu, Feb 29
2:00 AM
Thu, Feb 29
3:00 AM
Thu, Feb 29
4:00 AM
Thu, Feb 29
5:00 AM
Thu, Feb 29
6:00 AM
Thu, Feb 29
7:00 AM
Condition
Clear

Clear

Clear

Clear

Clear

Clear

Clear

Clear

Clear

Clear

Clear

Clear

Clear

Clear

Clear

Clear

Clear

Clear

Clear

Clear

Clouds

Clouds

Clouds

Clouds

Clear

Clear

Clear

Clear

Clear

Clear

Clouds

Clouds

Clouds

Clouds

Clouds

Clouds

Clouds

Clouds

Clouds

Clouds

Clouds

Clouds

Clouds

Clouds

Clouds

Clouds

Clouds

Clouds
Temperature 60°F61°F63°F66°F69°F72°F72°F72°F71°F70°F69°F68°F68°F67°F66°F66°F65°F65°F64°F64°F64°F64°F64°F64°F66°F69°F71°F72°F73°F74°F73°F73°F72°F72°F71°F70°F70°F70°F69°F69°F68°F68°F67°F67°F66°F66°F65°F65°F
Feels Like 58°F59°F62°F65°F68°F71°F72°F71°F71°F70°F69°F68°F68°F67°F66°F65°F65°F65°F64°F64°F64°F64°F64°F64°F66°F69°F72°F73°F74°F74°F74°F74°F73°F73°F71°F70°F70°F70°F70°F69°F69°F68°F68°F67°F66°F66°F66°F65°F
Cloudiness 0%0%0%0%0%0%0%0%1%4%6%6%3%2%2%4%5%10%6%4%15%14%26%31%7%7%5%4%8%10%100%100%100%100%99%99%100%100%100%100%100%100%100%100%91%79%81%83%
Visibility 6 mi6 mi6 mi6 mi6 mi6 mi6 mi6 mi6 mi6 mi6 mi6 mi6 mi6 mi6 mi6 mi6 mi6 mi6 mi6 mi6 mi6 mi6 mi6 mi6 mi6 mi6 mi6 mi6 mi6 mi6 mi6 mi6 mi6 mi6 mi6 mi6 mi6 mi6 mi6 mi6 mi6 mi6 mi6 mi6 mi6 mi6 mi6 mi
Precipitation 0%0%0%0%0%0%0%0%0%0%0%0%0%0%0%0%0%0%0%0%0%0%0%0%0%0%0%0%0%0%0%0%0%0%0%0%0%0%0%0%0%0%0%0%0%0%0%0%
Humidity 60%62%62%62%62%63%63%65%66%68%73%76%77%77%75%74%75%78%80%83%85%86%88%89%86%80%74%71%69%68%69%69%71%72%76%76%76%78%78%79%80%80%81%82%84%84%84%85%
Dew Point 46°F48°F50°F53°F55°F58°F58°F58°F59°F59°F60°F60°F60°F60°F58°F57°F57°F58°F58°F59°F59°F60°F60°F60°F61°F62°F62°F62°F62°F62°F62°F62°F62°F62°F63°F62°F62°F62°F62°F62°F62°F62°F61°F61°F61°F61°F61°F60°F
Pressure 30.15"30.15"30.15"30.18"30.15"30.15"30.12"30.09"30.09"30.09"30.09"30.09"30.12"30.12"30.12"30.12"30.09"30.12"30.09"30.06"30.09"30.09"30.09"30.12"30.15"30.15"30.15"30.15"30.15"30.15"30.12"30.09"30.09"30.12"30.12"30.15"30.15"30.18"30.18"30.18"30.18"30.18"30.18"30.18"30.18"30.18"30.18"30.21"
Wind Speed 9.2 mph9.2 mph10.1 mph11.8 mph12.1 mph12.2 mph12.7 mph12.8 mph12.4 mph11.9 mph10.2 mph10.1 mph9.9 mph11.1 mph9.7 mph10.9 mph11.5 mph9.6 mph9.2 mph10.4 mph8.8 mph9.3 mph11.7 mph11.9 mph11 mph13.9 mph14.3 mph14.5 mph13 mph12.3 mph12.3 mph12.1 mph11 mph7.9 mph5.2 mph4.7 mph4 mph2.5 mph3 mph3.9 mph4.5 mph5.2 mph6.1 mph6.4 mph6.9 mph7.3 mph7.3 mph7.8 mph
Wind
Direction
107°
ESE
113°
ESE
121°
ESE
139°
SE
165°
SSE
176°
S
188°
S
189°
S
186°
S
187°
S
183°
S
178°
S
161°
SSE
138°
SE
120°
ESE
119°
ESE
121°
ESE
117°
ESE
121°
ESE
128°
SE
122°
ESE
115°
ESE
116°
ESE
120°
ESE
117°
ESE
129°
SE
143°
SE
153°
SSE
163°
SSE
178°
S
178°
S
174°
S
173°
S
185°
S
189°
S
197°
SSW
206°
SSW
177°
S
118°
ESE
94°
E
87°
E
75°
ENE
65°
ENE
62°
ENE
54°
NE
63°
ENE
64°
ENE
66°
ENE

Daily Forecast

Date High Low Precip. Humidity
Today
Feb 27

Clear
72 °F
60 °F
0%
62%
Wednesday
Feb 28

Clear
74 °F
64 °F
0%
69%
Thursday
Feb 29

Clouds
76 °F
65 °F
0%
65%
Friday
Mar 1

Rain
74 °F
66 °F
31%
71%
Saturday
Mar 2

Rain
74 °F
67 °F
36%
74%
Sunday
Mar 3

Rain
76 °F
68 °F
40%
71%
Monday
Mar 4

Rain
77 °F
67 °F
20%
70%
Tuesday
Mar 5

Clouds
75 °F
68 °F
0%
76%
Wednesday
Mar 6

Clouds
76 °F
68 °F
2%
76%
Thursday
Mar 7

Clear
77 °F
68 °F
0%
73%
Friday
Mar 8

Clouds
75 °F
69 °F
0%
76%
Saturday
Mar 9

Rain
73 °F
65 °F
53%
70%
Sunday
Mar 10

Clouds
76 °F
59 °F
0%
48%
Monday
Mar 11

Clouds
74 °F
64 °F
0%
62%
Tuesday
Mar 12

Clouds
74 °F
66 °F
0%
65%
Wednesday
Mar 13

Clouds
76 °F
66 °F
0%
64%

Temperature 8-14 Day Outlook



Precipitation 8-14 Day Outlook




Quick Links
Naples News
Naples Photos
Naples Videos




About Us
Contact Us
Site Map
Search Site
Advertise With Us
   
Naples.USGulf.info
THE NAPLES WEBSITE

Copyright 2024, Coastal Town
Privacy    |    Legal